Previsão horária em Almancil

Hoje, 25 Junho, Sexta-feira

Tempo Temperatura Precipitação Vento Pressão Humidade
00:00 +22°C° 0 mm 1 m/s 758 mmHg 48%
01:00 +21°C° 0 mm 1 m/s 757 mmHg 48%
02:00 +21°C° 0 mm 1 m/s 757 mmHg 48%
03:00 +21°C° 0 mm 1 m/s 757 mmHg 48%
04:00 +21°C° 0 mm 1 m/s 757 mmHg 49%
05:00 +22°C° 0 mm 1 m/s 757 mmHg 49%
06:00 +24°C° 0 mm 1 m/s 757 mmHg 43%
07:00 +27°C° 0 mm 1 m/s 758 mmHg 38%
08:00 +30°C° 0 mm 2 m/s 758 mmHg 32%
09:00 +31°C° 0 mm 2 m/s 758 mmHg 30%
10:00 +34°C° 0 mm 3 m/s 758 mmHg 27%
11:00 +35°C° 0 mm 3 m/s 758 mmHg 25%
12:00 +35°C° 0 mm 3 m/s 758 mmHg 25%
13:00 +35°C° 0 mm 3 m/s 757 mmHg 26%
14:00 +35°C° 0 mm 3 m/s 757 mmHg 26%
15:00 +34°C° 0 mm 3 m/s 757 mmHg 29%
16:00 +33°C° 0 mm 3 m/s 757 mmHg 32%
17:00 +32°C° 0 mm 4 m/s 757 mmHg 35%
18:00 +29°C° 0 mm 3 m/s 757 mmHg 42%
19:00 +26°C° 0 mm 3 m/s 757 mmHg 48%
20:00 +24°C° 0 mm 3 m/s 757 mmHg 54%
21:00 +22°C° 0 mm 3 m/s 757 mmHg 54%
22:00 +23°C° 0 mm 2 m/s 757 mmHg 54%
23:00 +21°C° 0 mm 2 m/s 757 mmHg 54%

Amanhã, 26 Junho, Sábado

Tempo Temperatura Precipitação Vento Pressão Humidade
00:00 +21°C° 0 mm 2 m/s 757 mmHg 54%
01:00 +21°C° 0 mm 2 m/s 757 mmHg 53%
02:00 +21°C° 0 mm 2 m/s 757 mmHg 52%
03:00 +21°C° 0 mm 2 m/s 757 mmHg 52%
04:00 +21°C° 0 mm 2 m/s 757 mmHg 52%
05:00 +21°C° 0 mm 2 m/s 757 mmHg 52%
06:00 +25°C° 0 mm 2 m/s 757 mmHg 47%
07:00 +27°C° 0 mm 2 m/s 757 mmHg 42%
08:00 +29°C° 0 mm 3 m/s 757 mmHg 37%
09:00 +31°C° 0 mm 3 m/s 757 mmHg 35%
10:00 +33°C° 0 mm 3 m/s 757 mmHg 32%
11:00 +34°C° 0 mm 3 m/s 757 mmHg 30%
12:00 +34°C° 0 mm 3 m/s 757 mmHg 30%
13:00 +35°C° 0 mm 4 m/s 756 mmHg 30%
14:00 +35°C° 0 mm 4 m/s 756 mmHg 29%
15:00 +34°C° 0 mm 4 m/s 756 mmHg 29%
16:00 +33°C° 0 mm 5 m/s 756 mmHg 29%
17:00 +33°C° 0 mm 6 m/s 755 mmHg 28%
18:00 +29°C° 0 mm 5 m/s 756 mmHg 35%
19:00 +26°C° 0 mm 5 m/s 756 mmHg 41%
20:00 +22°C° 0 mm 4 m/s 756 mmHg 47%
21:00 +21°C° 0 mm 4 m/s 756 mmHg 53%
22:00 +20°C° 0 mm 4 m/s 757 mmHg 59%
23:00 +19°C° 0 mm 4 m/s 757 mmHg 65%

Depois de amanhã, 27 Junho, Domingo

Tempo Temperatura Precipitação Vento Pressão Humidade
00:00 +18°C° 0 mm 4 m/s 756 mmHg 68%
01:00 +18°C° 0 mm 3 m/s 756 mmHg 72%
02:00 +17°C° 0 mm 3 m/s 756 mmHg 76%
03:00 +17°C° 0 mm 3 m/s 756 mmHg 77%
04:00 +17°C° 0 mm 3 m/s 757 mmHg 78%
05:00 +17°C° 0 mm 4 m/s 757 mmHg 79%
06:00 +19°C° 0 mm 4 m/s 757 mmHg 67%
07:00 +22°C° 0 mm 4 m/s 757 mmHg 54%
08:00 +26°C° 0 mm 4 m/s 758 mmHg 41%
09:00 +28°C° 0 mm 4 m/s 757 mmHg 36%
10:00 +30°C° 0 mm 5 m/s 757 mmHg 30%
11:00 +33°C° 0 mm 5 m/s 757 mmHg 24%
12:00 +33°C° 0 mm 6 m/s 757 mmHg 23%
13:00 +33°C° 0 mm 7 m/s 757 mmHg 23%
14:00 +34°C° 0 mm 8 m/s 756 mmHg 22%
15:00 +32°C° 0 mm 8 m/s 756 mmHg 27%
16:00 +31°C° 0 mm 8 m/s 756 mmHg 32%
17:00 +28°C° 0 mm 8 m/s 757 mmHg 36%
18:00 +26°C° 0 mm 8 m/s 757 mmHg 40%
19:00 +23°C° 0 mm 7 m/s 758 mmHg 43%
20:00 +21°C° 0 mm 7 m/s 758 mmHg 46%
21:00 +18°C° 0 mm 7 m/s 758 mmHg 50%
22:00 +17°C° 0 mm 7 m/s 759 mmHg 54%
23:00 +16°C° 0 mm 7 m/s 759 mmHg 57%

28 Junho, Segunda-feira

Tempo Temperatura Precipitação Vento Pressão Humidade
00:00 +15°C° 0 mm 7 m/s 759 mmHg 62%
01:00 +15°C° 0 mm 7 m/s 759 mmHg 67%
02:00 +14°C° 0 mm 7 m/s 758 mmHg 72%
03:00 +14°C° 0 mm 7 m/s 759 mmHg 74%
04:00 +14°C° 0 mm 7 m/s 759 mmHg 76%
05:00 +14°C° 0 mm 7 m/s 759 mmHg 79%
06:00 +16°C° 0 mm 7 m/s 759 mmHg 68%
07:00 +19°C° 0 mm 6 m/s 759 mmHg 57%
08:00 +22°C° 0 mm 6 m/s 760 mmHg 46%
09:00 +24°C° 0 mm 6 m/s 759 mmHg 39%
10:00 +27°C° 0 mm 5 m/s 759 mmHg 33%
11:00 +30°C° 0 mm 5 m/s 759 mmHg 26%
12:00 +32°C° 0 mm 5 m/s 759 mmHg 25%
13:00 +32°C° 0 mm 6 m/s 758 mmHg 24%
14:00 +33°C° 0 mm 7 m/s 758 mmHg 22%
15:00 +33°C° 0 mm 7 m/s 758 mmHg 25%
16:00 +32°C° 0 mm 8 m/s 758 mmHg 29%
17:00 +31°C° 0 mm 8 m/s 758 mmHg 32%
18:00 +28°C° 0 mm 8 m/s 758 mmHg 38%
19:00 +24°C° 0 mm 8 m/s 759 mmHg 45%
20:00 +22°C° 0 mm 9 m/s 759 mmHg 51%
21:00 +21°C° 0 mm 8 m/s 759 mmHg 58%
22:00 +18°C° 0 mm 8 m/s 759 mmHg 64%
23:00 +17°C° 0 mm 8 m/s 759 mmHg 71%

29 Junho, Terça-feira

Tempo Temperatura Precipitação Vento Pressão Humidade
00:00 +16°C° 0 mm 7 m/s 759 mmHg 73%
01:00 +16°C° 0 mm 6 m/s 759 mmHg 76%
02:00 +15°C° 0 mm 6 m/s 758 mmHg 79%
03:00 +15°C° 0 mm 6 m/s 759 mmHg 79%
04:00 +15°C° 0 mm 5 m/s 759 mmHg 80%
05:00 +15°C° 0 mm 5 m/s 759 mmHg 81%
06:00 +17°C° 0 mm 5 m/s 759 mmHg 69%
07:00 +21°C° 0 mm 5 m/s 759 mmHg 57%
08:00 +25°C° 0 mm 4 m/s 759 mmHg 45%
09:00 +27°C° 0 mm 4 m/s 759 mmHg 38%
10:00 +30°C° 0 mm 4 m/s 758 mmHg 31%
11:00 +33°C° 0 mm 4 m/s 758 mmHg 24%
12:00 +34°C° 0 mm 5 m/s 758 mmHg 21%
13:00 +35°C° 0 mm 5 m/s 757 mmHg 19%
14:00 +36°C° 0 mm 6 m/s 757 mmHg 16%
15:00 +35°C° 0 mm 6 m/s 757 mmHg 17%
16:00 +34°C° 0 mm 7 m/s 756 mmHg 19%
17:00 +33°C° 0 mm 7 m/s 756 mmHg 20%
18:00 +29°C° 0 mm 7 m/s 757 mmHg 28%
19:00 +26°C° 0 mm 8 m/s 757 mmHg 35%
20:00 +22°C° 0 mm 8 m/s 757 mmHg 43%
21:00 +21°C° 0 mm 8 m/s 757 mmHg 49%
22:00 +18°C° 0 mm 8 m/s 757 mmHg 55%
23:00 +17°C° 0 mm 7 m/s 757 mmHg 60%

30 Junho, Quarta-feira

Tempo Temperatura Precipitação Vento Pressão Humidade
00:00 +16°C° 0 mm 7 m/s 757 mmHg 64%
01:00 +16°C° 0 mm 6 m/s 757 mmHg 68%
02:00 +15°C° 0 mm 6 m/s 757 mmHg 71%
03:00 +15°C° 0 mm 5 m/s 757 mmHg 74%
04:00 +15°C° 0 mm 5 m/s 757 mmHg 76%
05:00 +15°C° 0 mm 5 m/s 757 mmHg 78%
06:00 +19°C° 0 mm 5 m/s 757 mmHg 67%
07:00 +22°C° 0 mm 4 m/s 757 mmHg 55%
08:00 +25°C° 0 mm 4 m/s 757 mmHg 44%
09:00 +28°C° 0 mm 4 m/s 757 mmHg 37%
10:00 +32°C° 0 mm 4 m/s 757 mmHg 30%
11:00 +34°C° 0 mm 4 m/s 756 mmHg 22%
12:00 +35°C° 0 mm 5 m/s 756 mmHg 21%
13:00 +36°C° 0 mm 5 m/s 756 mmHg 19%
14:00 +38°C° 0 mm 6 m/s 755 mmHg 17%
15:00 +36°C° 0 mm 6 m/s 755 mmHg 20%
16:00 +35°C° 0 mm 6 m/s 755 mmHg 22%
17:00 +34°C° 0 mm 7 m/s 755 mmHg 25%
18:00 +30°C° 0 mm 7 m/s 755 mmHg 32%
19:00 +27°C° 0 mm 7 m/s 756 mmHg 39%
20:00 +23°C° 0 mm 7 m/s 756 mmHg 47%
21:00 +22°C° 0 mm 6 m/s 757 mmHg 51%
22:00 +21°C° 0 mm 5 m/s 757 mmHg 56%
23:00 +20°C° 0 mm 5 m/s 757 mmHg 61%
Mostrar mais